Starlink 33751

operational
NORAD ID: 63512 Int'l Des: 2025-071 Owner: SPXS Country: US Constellation: starlink
LEOCIRCULAR

About Starlink 33751

Description loading...

Live Position

Loading 3D Globe...

Upcoming Passes

Altitude History

Altitude vs Time

uPlot chart will show altitude changes over time

Two-Line Element Set

1 63512U 25071V 26033.06751089 .00008928 00000-0 31324-3 0 9995
2 63512 53.1606 305.5152 0001347 77.4866 282.6286 15.30196290 47296
Epoch: Feb 2, 2026 • Age: 29 hours

Current Status

Altitude 484.3 km
Velocity 7.62 km/s
Sub-Earth Point -28.31°S, 91.58°W
Launch Date Apr 7, 2025
Age 0.8 years
Type internet

Technical Details

Classification Payload
Mass 575.00 kg
Dry Mass 530.00 kg
Total Mass 575.00 kg
Length 0.30 m
Diameter 4.10 m
Span 29.00 m
Shape Box + pan
Manufacturer SPXS
Bus Type Starlink V2MO
Phase Status In Orbit
Owner/State SPXS/US

Large Constellations

Loading constellations...